sat.trackr.live / text

‹ back to catalog

GNOMES-1

NORAD 46266 · 2020-059B

PAYLOAD ACTIVE UNKNOWN

§ Identity

Operator
Country
US
Launch date
2020-08-30
Launch site
AFETR
Launch vehicle
Mass (kg)
RCS (m²)

External: N2YO · Heavens-Above · Gunter

§ Orbital elements

Epoch: 2026-05-25T02:50:13.966944Z

Period
95.99 min
Inclination
97.7871°
Eccentricity
0.0012323
Mean motion
15.00190580 rev/d
Perigee alt
557.8 km
Apogee alt
574.9 km
Semi-major
6,944.4 km
B*
1.8251e-4
RAAN
355.4784°
Arg perigee
85.7423°
Mean anomaly
274.5208°
Rev number
31,213

§ Raw data

GNOMES-11 46266U 20059B   26145.11821721  .00002223  00000+0  18251-3 0  99992 46266  97.7871 355.4784 0012323  85.7423 274.5208 15.00190580312138

JSON: /api/v1/satellites/46266 · /tle

For live sub-satellite position, see the globe view (requires WebGL).

§ Visibility from observer

Set your observer location to see the next 7 days of passes ≥ 10°. The values pass through the URL so the page stays shareable.

No JS? Fill the form by hand. The geolocation button needs JavaScript.